RH
74 73 70 80 89 79 81 84 70 57 52 54 55 61 72 75 84 92 93 89 89 85 86 85 91 93 93 95 85 79 93 96 87 91 75 74 79 80 85 82 77 68 54
65 72 70 74 74 84 96 96 74 65 49 54 57 68 70 71 77 80 91 93 87 86 94 80 83 87 70 82 90 86 82 77 86 95 97 90 100 90 87 80 79 66 59
56 78 84 94 88 89 93 94 73 56 52 62 79 69 72 84 78 79 80 83 94 90 84 80 75 80 80 73 74 89 89 87 85 85 84 74 79 81 62 58 61 52 54
68 76 73 88 95 98 96 96 100 100 79 88 84 92 93 89 86 82 92 92 94 95 95 91 92 92 89 95 94 97 97 95 95 97 86 75 80 77 65 56 56 59 66
76 72 71 81 96 94 97 98 93 99 96 92 88 94 98 98 96 78 95 94 98 97 93 96 96 98 96 97 96 97 97 97 92 96 97 93 92 91 90 97 87 90 91
56 92 98 88 89 96 90 95 98 96 97 84 82 91 91 98 87 96 95 96 96 96 96 88 97 96 96 97 92 98 97 97 95 99 97 96 97 97 96 97 97 92 93
92 57 68 85 77 83 72 92 80 88 92 93 86 87 98 92 92 78 90 97 97 95 92 96 96 96 94 86 92 95 83 65 73 96 95 96 93 82 96 97 82 93 97
99 92 98 98 90 96 83 96 81 77 76 77 76 80 80 86 82 93 92 95 96 96 96 96 90 85 84 75 71 69 64 60 72 70 81 93 91 90 86 93 88 55 72
98 100 100 100 97 76 78 82 73 75 88 72 96 96 95 89 86 76 67 94 93 96 89 94 90 87 95 68 49 57 63 61 65 61 57 70 82 85 68 66 67 78 70
100 98 99 98 99 99 97 98 94 86 98 95 97 96 67 64 71 60 81 96 93 94 96 76 68 68 81 69 54 52 48 50 51 48 47 61 56 48 66 68 61 62 68
94 98 97 98 99 98 97 98 97 98 97 95 97 91 96 72 90 89 97 95 100 91 93 95 90 88 75 68 60 57 55 50 45 41 50 58 48 56 82 70 98 73 49
63 77 98 95 95 98 99 100 98 100 100 92 92 88 86 79 97 88 65 79 96 83 77 98 93 79 68 68 64 60 55 52 49 46 35 42 51 57 60 59 49 62 48
11 20 27 78 42 74 91 95 93 96 95 98 100 100 98 98 85 96 78 70 82 75 77 76 94 92 86 64 65 74 83 82 44 35 32 40 56 66 60 52 53 49 52
7 6 8 14 22 31 34 58 90 76 93 97 97 96 97 96 99 94 95 96 78 89 76 86 88 68 65 68 74 73 78 83 58 44 57 46 33 42 67 68 64 55 47
6 5 5 6 7 8 9 8 15 23 42 60 66 88 89 95 93 90 95 98 97 98 98 97 96 92 71 75 76 79 76 80 82 64 52 48 42 38 44 54 56 61 48
6 5 4 4 4 5 5 6 8 10 14 19 23 34 70 54 79 82 89 83 61 73 71 71 80 78 78 74 68 75 77 85 75 60 58 56 43 39 48 52 60 56 56
6 5 5 4 4 3 3 4 4 5 6 6 7 10 12 12 11 9 30 28 27 59 72 42 40 43 48 59 62 73 83 87 73 62 57 50 44 52 65 68 63 61 58
11 11 7 4 4 4 8 11 9 5 4 5 4 4 4 4 6 7 6 6 6 7 9 17 47 44 41 37 44 56 61 63 78 77 77 70 62 58 54 54 68 61 42
16 16 12 7 5 5 18 23 38 38 31 23 15 8 5 4 4 4 4 4 4 4 4 5 4 5 10 20 22 34 30 32 42 43 54 66 67 64 59 50 46 39 31
8 11 12 9 5 6 19 35 52 46 38 39 31 28 23 22 19 16 12 8 6 5 4 4 4 3 4 4 5 7 13 23 21 21 27 29 29 29 26 38 42 40 36
6 5 6 7 5 12 26 41 52 45 38 33 26 28 30 30 31 32 27 23 20 16 9 6 4 4 4 3 3 3 4 6 10 9 11 18 23 27 35 41 38 34 34
9 5 6 6 6 16 38 49 54 53 45 36 36 40 48 44 36 26 23 21 19 19 23 20 15 10 7 5 4 3 3 3 4 5 7 10 12 15 17 19 23 22 20
9 6 6 6 8 19 49 57 58 58 54 54 47 43 43 40 29 25 40 41 38 23 14 14 16 20 15 18 24 27 23 20 13 5 5 5 7 11 14 15 15 16 15
8 6 5 6 8 27 61 65 69 70 64 54 56 40 20 12 40 54 56 57 62 51 37 41 49 50 50 41 35 39 32 22 11 8 11 14 11 15 14 16 15 15 18
7 5 6 6 11 40 75 79 88 76 68 54 16 10 16 50 66 69 61 67 71 84 83 83 88 87 78 67 51 33 14 8 12 18 18 20 21 18 16 18 18 18 36
5 5 6 8 12 50 90 98 88 81 67 18 9 12 19 29 51 62 64 64 79 88 66 45 28 16 10 8 8 9 11 17 22 25 34 40 100 100 100 92 98 100 100
Wind_Speed
51 50 54 53 50 51 55 56 53 50 51 50 50 51 48 46 47 49 52 57 59 57 54 52 49 50 46 44 44 45 44 52 53 51 51 50 48 47 47 45 46 44 43
57 50 52 51 52 53 57 51 53 50 48 51 53 48 48 49 51 52 52 54 57 59 58 54 52 53 50 47 47 46 47 47 45 46 52 55 50 54 51 51 52 48 47
60 52 52 53 53 55 53 53 54 54 53 53 49 47 48 50 54 54 56 54 56 59 59 58 56 56 56 54 54 53 52 54 53 52 50 54 50 55 53 54 53 51 48
63 57 52 55 54 56 55 52 53 53 50 49 48 46 49 51 51 53 54 60 61 57 62 58 58 60 60 58 58 56 62 65 63 60 57 58 56 55 53 55 54 52 50
62 59 57 59 56 58 55 54 55 58 57 55 53 52 53 53 54 57 50 57 53 57 51 49 53 57 60 63 58 61 62 65 63 63 63 64 63 60 59 57 60 59 58
75 63 47 55 65 61 58 57 60 56 57 58 57 55 58 59 59 60 50 62 55 62 56 52 51 58 60 52 42 52 63 48 46 62 53 57 71 62 51 39 64 73 67
55 59 69 64 64 71 59 68 59 59 54 63 64 63 62 55 60 64 55 39 37 53 52 49 42 36 34 36 38 29 26 27 28 48 42 37 23 27 38 49 32 51 58
63 69 52 58 77 66 67 62 71 63 63 64 68 69 65 60 63 57 50 61 43 46 45 44 34 40 38 38 40 36 33 33 31 26 24 29 31 37 37 39 38 30 33
22 46 65 73 67 69 73 72 68 66 58 66 65 60 62 72 66 67 64 60 52 44 42 40 37 44 40 42 42 39 39 39 36 36 35 38 39 41 42 44 44 42 40
23 15 35 64 75 63 80 81 64 67 63 70 70 66 65 64 60 61 69 64 61 62 49 48 49 49 47 44 46 45 45 43 42 42 42 41 42 43 45 48 45 42 41
25 22 25 27 30 43 50 56 73 74 71 78 69 65 65 58 68 64 59 59 55 64 55 47 50 50 50 53 51 49 50 47 47 44 46 45 46 44 51 45 47 49 44
28 30 29 26 37 41 39 45 54 69 72 75 77 75 71 71 70 66 69 66 66 65 60 60 58 56 56 53 51 51 51 54 49 50 50 52 49 50 51 52 50 47 45
37 35 34 38 35 36 45 45 44 43 46 62 78 81 85 79 80 80 76 72 71 70 68 62 66 63 60 59 59 58 54 56 55 53 48 44 51 52 50 52 50 49 48
43 41 40 41 43 44 46 44 47 48 51 53 46 56 68 72 78 73 74 75 80 75 70 66 67 69 71 72 70 70 64 59 59 59 56 51 48 54 55 54 54 56 53
45 46 45 45 47 48 49 45 49 52 53 55 55 52 54 54 55 67 70 70 74 70 70 72 74 76 80 73 71 63 67 65 63 64 61 55 52 51 55 59 59 61 60
40 41 42 43 45 49 51 51 58 57 60 59 60 61 59 55 58 58 60 54 52 56 62 66 76 74 79 78 72 68 70 70 68 65 63 60 55 55 56 59 61 60 60
40 41 41 40 40 41 43 48 53 61 66 66 65 68 67 69 70 65 69 70 69 69 62 56 57 59 61 66 64 64 63 65 66 65 61 61 61 63 65 65 62 62 62
40 39 40 39 38 37 35 36 42 47 52 57 68 71 71 73 74 77 79 76 75 75 76 76 74 74 70 67 66 64 63 61 63 61 61 61 62 64 62 59 60 61 57
40 39 39 38 35 34 32 33 34 37 38 39 43 51 58 65 66 69 69 73 74 75 81 81 78 77 77 80 80 78 74 72 71 69 68 66 65 66 65 64 63 61 61
36 38 39 38 32 31 32 31 30 33 36 36 35 37 38 39 43 49 55 60 65 70 74 77 80 81 80 80 83 85 85 84 82 81 80 78 77 75 72 71 70 70 71
36 36 36 35 30 29 31 31 29 28 32 33 35 37 39 42 48 52 52 51 53 57 64 69 74 77 82 84 86 87 89 90 89 88 88 86 84 83 81 81 79 76 73
35 34 33 33 30 30 30 30 26 27 28 33 37 40 41 44 49 53 57 58 61 61 63 63 66 71 80 83 86 89 91 92 93 92 89 84 82 79 80 79 74 67 61
32 30 30 30 29 29 29 26 25 25 28 31 35 40 43 44 45 37 36 38 45 53 59 63 64 63 67 73 70 64 65 64 64 66 65 70 60 50 48 46 47 42 43
29 27 26 26 27 25 24 23 22 24 26 31 33 35 39 37 30 30 30 33 31 29 35 40 42 40 41 45 47 44 44 44 45 43 41 39 41 39 41 44 45 48 52
26 24 23 22 21 18 19 18 19 22 25 24 27 27 22 22 25 23 22 22 21 19 20 24 29 32 36 39 41 39 38 39 41 43 42 43 44 45 47 45 45 44 39
22 21 19 18 17 15 15 14 15 15 14 18 16 16 13 13 15 19 20 20 21 21 22 23 26 28 29 31 33 36 38 43 46 40 36 33 32 31 32 34 37 40 42
Wind_Direction
219 227 228 224 224 223 222 225 226 227 231 236 240 238 239 244 242 241 239 238 239 241 243 243 244 247 245 245 249 254 251 241 243 243 247 248 252 254 256 257 258 259 258
219 225 228 220 222 224 226 227 227 228 232 235 236 238 239 241 242 241 241 239 239 240 243 243 242 246 249 252 252 256 258 257 254 244 244 247 246 253 253 255 258 261 263
218 220 224 223 222 224 230 224 228 228 227 230 235 237 241 242 240 242 242 242 239 239 240 242 243 245 246 250 252 251 253 256 253 252 251 250 248 251 254 256 257 257 260
215 217 223 227 222 226 226 227 229 232 231 233 235 235 240 243 245 246 248 247 243 241 239 239 242 245 246 247 253 260 258 253 253 250 251 251 248 248 251 254 257 259 258
220 220 221 226 223 223 227 232 234 225 232 233 233 236 237 242 244 244 249 237 235 231 237 241 247 253 250 251 253 264 258 251 246 253 251 251 247 247 246 251 256 256 257
220 217 212 223 226 220 229 228 234 237 230 235 234 234 238 241 246 246 225 244 246 238 235 236 248 237 241 249 260 261 252 261 253 258 248 258 257 251 251 273 260 252 252
220 220 216 221 228 214 226 228 235 238 238 241 238 238 239 235 243 245 252 240 230 229 232 232 236 237 236 241 255 243 250 270 286 247 247 249 259 256 252 261 294 261 252
204 215 216 224 219 228 225 230 234 234 233 236 235 236 242 239 244 249 252 248 233 239 229 247 249 242 249 253 255 254 250 254 258 260 246 241 247 254 256 262 273 277 266
182 192 205 223 231 228 226 228 230 236 239 239 234 224 235 240 244 249 248 246 260 231 241 244 238 249 244 251 252 252 253 254 251 252 255 255 258 260 264 267 268 266 271
254 213 203 212 217 222 220 224 229 231 229 235 236 243 244 243 244 244 248 247 246 251 244 249 254 247 252 257 258 256 257 255 257 256 254 250 256 260 260 262 269 269 265
279 266 253 255 228 221 220 222 224 230 237 235 236 241 244 240 240 239 244 251 248 250 251 246 246 245 256 260 257 257 258 257 255 253 254 250 255 251 256 261 255 265 267
290 290 284 274 259 255 240 225 228 229 227 234 241 245 233 241 239 239 246 247 246 247 245 251 247 255 256 254 253 255 259 258 258 259 261 255 254 258 258 259 255 255 259
290 286 283 276 279 274 263 255 253 242 236 234 232 238 242 239 241 245 244 246 245 248 246 245 248 253 258 257 265 255 262 264 256 257 259 258 259 260 258 260 257 257 259
290 287 280 276 273 270 270 268 264 268 261 260 248 242 239 241 238 238 241 243 251 245 248 249 243 253 259 261 265 259 258 260 258 256 262 263 264 262 263 261 263 265 261
289 286 283 279 277 273 272 268 264 263 262 265 266 257 254 255 257 252 249 245 245 239 250 250 250 254 261 261 261 260 257 257 257 255 257 262 266 260 258 260 261 263 260
286 283 282 279 275 274 275 275 269 264 261 260 261 263 260 263 264 264 262 256 262 259 255 255 255 259 255 261 262 260 260 259 257 256 257 260 260 258 252 256 258 258 258
288 285 283 283 283 281 278 276 275 275 271 267 265 260 259 261 262 262 261 263 265 264 258 260 261 263 265 265 265 261 256 254 257 258 253 251 255 251 248 251 251 251 251
291 291 291 287 284 285 284 276 274 273 274 275 275 273 270 268 267 266 268 264 263 263 263 259 254 255 257 257 258 257 258 257 253 250 246 245 245 245 246 248 249 248 253
286 287 290 289 287 286 280 272 267 263 262 264 268 271 272 271 269 268 266 266 265 263 261 260 258 256 251 251 253 254 253 255 251 251 251 248 246 246 247 249 251 255 256
287 284 286 289 284 280 274 273 275 265 258 263 263 259 258 259 259 257 258 256 252 253 255 256 257 257 255 253 252 249 249 248 250 247 247 246 246 246 246 245 247 250 253
292 290 288 285 278 272 270 276 279 273 265 261 260 260 262 267 268 267 263 260 258 257 254 252 254 255 251 251 249 248 247 246 244 244 246 245 244 246 247 246 246 246 251
293 288 285 283 277 275 278 281 279 276 269 269 274 276 275 276 275 273 270 266 262 256 256 255 253 248 245 243 243 243 243 244 245 245 246 247 247 248 248 250 252 252 254
286 279 276 274 267 270 276 278 278 277 277 278 278 280 276 279 286 273 270 265 266 262 258 254 252 253 249 246 246 252 252 250 247 246 248 250 251 256 257 254 256 249 245
282 270 268 262 259 265 273 278 282 290 288 289 288 291 291 284 266 270 267 269 274 268 254 246 244 244 240 240 242 242 240 239 234 227 223 220 231 234 236 225 224 227 230
273 262 262 257 258 269 276 283 295 292 292 299 309 299 286 270 254 258 259 265 261 254 238 232 231 232 232 233 236 235 223 211 206 207 207 210 217 218 221 227 231 236 239
260 252 256 256 261 272 277 287 288 295 318 333 313 307 286 273 264 262 260 256 255 247 238 234 232 229 225 218 208 203 203 204 207 216 215 207 211 219 216 216 214 213 217